Retour au catalogue

COSMOS 1867 COOLANT

ActifLEO
NORAD 43324·DEBRIS·🇷🇺 Russia

Lancé Jul 10, 1987 depuis Baikonur Cosmodrome

Loading…

Prochains Passages (prochaines 24 heures)

TLE

FraisSource: Space-Track

Époque: Sep 13, 2026, 06:06 UTC

1 43324U 87060AR  26256.25453659  .00000140  00000-0  86224-4 0  9998
2 43324  65.0055 125.9456 0019083 282.9326  76.9628 14.33838714637527

Suivez COSMOS 1867 COOLANT en temps réel avec AllMySat

Download on the App Store